Weather Roundup
Issued by NWS Chicago, IL

Home | Current Version | Previous Version | Text Only | Print | Product List | Glossary On
Versions: 1 2 3 4 5 6 7 8 9 10 11 12 13 14 15 16 17 18 19 20 21 22 23 24 25 26 27 28 29 30 31 32 33 34 35 36 37 38 39 40 41 42 43 44 45 46 47 48 49 50
000
NZUS59 KLOT 161406
HRRLOT

CHICAGO AREA WEATHER ROUNDUP
NATIONAL WEATHER SERVICE CHICAGO/ROMEOVILLE IL
900 AM CDT TUE SEP 16 2014

NOTE: "FAIR" INDICATES FEW OR NO CLOUDS BELOW 12,000 FEET WITH NO
SIGNIFICANT WEATHER AND/OR OBSTRUCTIONS TO VISIBILITY.

* THESE STATIONS ARE NOT UNDER NWS QUALITY CONTROL. THEY ALSO MAY NOT
  REPORT WEATHER SUCH AS PRECIPITATION OR FOG.

ILZ005-006-012>014-019>023-161500-
NORTHEAST ILLINOIS

CITY           SKY/WX    TMP DP  RH WIND       PRES   REMARKS
OHARE          MOSUNNY   53  45  74 N5        30.21S
MIDWAY         MOSUNNY   56  48  74 NW5       30.21S
AURORA         SUNNY     51  45  79 CALM      30.23S
LANSING*       SUNNY     55  50  84 NW5       30.21S
JOLIET*        SUNNY     51  46  84 CALM      30.23S
WAUKEGAN       SUNNY     54  44  69 VRB3      30.21R
DUPAGE AIRPORT SUNNY     53  46  77 N5        30.22R
WHEELING       SUNNY     55  45  68 CALM      30.23R
KANKAKEE*      SUNNY     53  49  87 CALM      30.22S
MORRIS*        SUNNY     51  49  90 CALM      30.22S
LEWIS AIRPORT* SUNNY     51  47  87 CALM      30.23R
NORTHERLY IS     N/A     56  47  71 W3          N/A
$$

WIZ051-052-058>065-066-070>072-161500-
SOUTHEAST WISCONSIN

CITY           SKY/WX    TMP DP  RH WIND       PRES   REMARKS
MILWAUKEE      SUNNY     53  43  68 W5        30.21R
KENOSHA*       SUNNY     52  47  83 W3        30.21S
RACINE*        SUNNY     53  46  77 W3        30.22S
BURLINGTON     SUNNY     49  46  90 NW3       30.21S
WAUKESHA       SUNNY     46  45  93 W3        30.21S
WEST BEND      SUNNY     50  43  76 CALM      30.20S
$$

INZ001>003-010>013-019-020-161500-
NORTHWEST INDIANA

CITY           SKY/WX    TMP DP  RH WIND       PRES   REMARKS
GARY*          MOSUNNY   57  50  77 W6        30.21S
MICHIGAN CITY* NOT AVBL
RENSSELAER*    NOT AVBL
VALPARAISO     MOSUNNY   56  49  77 CALM      30.21R
$$

LMZ740>746-161500-
SOUTHERN LAKE MICHIGAN

STATION/POSITION TIME  SKY/WX   TEMP WIND        PRES    VSBY
                                AIR  DIR/SP/G
                 (UTC)          (F)  (DEG/KT/KT) (MB)    (MI)
HARRISON CRIB    1400            52  300/  7/  9   N/A
BURNHAM HARBOR   1400            57   CALM  /  4   N/A
CALUMET HARBOR   1300            53  240/  1/  3   N/A
BURNS HARBOR     NOT AVBL
MICHIGAN CITY    1400            56  160/  4/  5   N/A
$$

ABBREVIATIONS USED IN REMARKS
   TC - TEMPERATURE IN CELSIUS
  WCI - WIND CHILL INDEX
   HX - HEAT INDEX
  VSB - VISIBILITY
$$


USA.gov is the U.S. government's official web portal to all federal, state and local government web resources and services.